Terminal Aerodrome Forecast
Issued by NWS

Home | Current Version | Previous Version | Text Only | Print | Product List | Glossary On
Versions: 1 2 3 4 5 6 7 8 9 10 11 12 13 14 15 16 17 18 19 20
715
FTUS41 KCAR 182106 AAA
TAFFVE
TAF AMD
KFVE 182106Z 1821/1918 33012G20KT P6SM BKN035
     FM182300 30009KT P6SM SCT040
     FM190400 VRB03KT P6SM SCT150
     FM191600 18010G21KT P6SM BKN130=

USA.gov is the U.S. government's official web portal to all federal, state and local government web resources and services.